ブレッシ彗星

P/2011 U2 ( Bressi )

English version
Home page
Updated on March 18, 2012

---------------------------------------------------------------------

・ プロフィール

発見日 2011年10月24日
発見光度 19.4等
発見者 Terry H. Bressi (Kitt Peak)

・ 写真集

・ 軌道要素

Epoch 2012 Apr. 23.0 TT = JDT 2456040.5
T 2012 May 7.31937 TT                                   MPC
q   4.8375265            (2000.0)            P               Q
n   0.07766314     Peri.  157.71507     +0.42664228     -0.88886628
a   5.4407579      Node   266.69181     +0.80251118     +0.45721543
e   0.1108727      Incl.    9.63035     +0.41707574     +0.02950890
P  12.7
From 97 observations 2011 Oct. 24-2012 Mar. 16, mean residual 0".4.

・ 光度変化

        m1 = 9.0 + 5 logΔ + 10.0 log r

---------------------------------------------------------------------

軌道要素はM.P.E.C. 2012-F11に掲載されたものです。
光度グラフはComet for Windowsで作成したものです。

---------------------------------------------------------------------

Copyright(C) Seiichi Yoshida (comet@aerith.net). All rights reserved.